Time,TemperatureF,DewpointF,PressureIn,WindDirection,WindDirectionDegrees,WindSpeedMPH,WindSpeedGustMPH,Humidity,HourlyPrecipIn,Conditions,Clouds,dailyrainin,SoftwareType,DateUTC
2013-04-04 00:12:00,44.6,32.0,29.84,WNW,295,0.0,0.0,61,0.00,,---,0.00,VWS V14.00,2013-04-04 07:12:00,
2013-04-04 00:18:00,44.6,32.0,29.82,WNW,294,2.0,2.0,61,0.00,,---,0.00,VWS V14.00,2013-04-04 07:18:00,
2013-04-04 00:23:00,44.5,32.7,29.82,WNW,294,0.0,0.0,63,0.00,,---,0.00,VWS V14.00,2013-04-04 07:23:00,
2013-04-04 00:28:00,44.5,32.3,29.82,WNW,294,0.0,0.0,62,0.00,,---,0.00,VWS V14.00,2013-04-04 07:28:00,
2013-04-04 00:33:00,44.5,32.7,29.82,WNW,294,0.0,1.0,63,0.00,,---,0.00,VWS V14.00,2013-04-04 07:33:00,
2013-04-04 00:38:00,44.2,32.4,29.82,WNW,294,0.0,1.0,63,0.00,,---,0.00,VWS V14.00,2013-04-04 07:38:00,
2013-04-04 00:43:00,44.2,32.4,29.82,WNW,294,0.0,0.0,63,0.00,,---,0.00,VWS V14.00,2013-04-04 07:43:00,
2013-04-04 00:49:00,44.2,32.8,29.81,WNW,294,0.0,0.0,64,0.00,,---,0.00,VWS V14.00,2013-04-04 07:49:00,
2013-04-04 00:54:00,44.1,32.7,29.81,WNW,294,2.0,2.0,64,0.00,,---,0.00,VWS V14.00,2013-04-04 07:54:00,
2013-04-04 00:59:00,43.8,32.4,29.81,WNW,288,1.0,3.0,64,0.00,,---,0.00,VWS V14.00,2013-04-04 07:59:00,
2013-04-04 01:04:00,43.8,32.0,29.82,WNW,288,0.0,0.0,63,0.00,,---,0.00,VWS V14.00,2013-04-04 08:04:00,
2013-04-04 01:10:00,43.6,32.2,29.82,WNW,288,0.0,0.0,64,0.00,,---,0.00,VWS V14.00,2013-04-04 08:10:00,
2013-04-04 01:15:00,43.5,32.2,29.82,WNW,288,0.0,0.0,64,0.00,,---,0.00,VWS V14.00,2013-04-04 08:15:00,
2013-04-04 01:20:00,43.1,32.2,29.79,WNW,288,0.0,2.0,65,0.00,,---,0.00,VWS V14.00,2013-04-04 08:20:00,
2013-04-04 01:25:00,42.8,32.2,29.79,WNW,288,0.0,0.0,66,0.00,,---,0.00,VWS V14.00,2013-04-04 08:25:00,
2013-04-04 01:30:00,42.6,31.7,29.80,WNW,288,0.0,0.0,65,0.00,,---,0.00,VWS V14.00,2013-04-04 08:30:00,
2013-04-04 01:35:00,42.6,32.0,29.80,WNW,288,0.0,0.0,66,0.00,,---,0.00,VWS V14.00,2013-04-04 08:35:00,
2013-04-04 01:41:00,42.3,32.1,29.80,WNW,288,0.0,2.0,67,0.00,,---,0.00,VWS V14.00,2013-04-04 08:41:00,
2013-04-04 01:45:00,42.2,31.7,29.79,WNW,288,0.0,0.0,66,0.00,,---,0.00,VWS V14.00,2013-04-04 08:45:00,
2013-04-04 01:51:00,42.1,31.6,29.79,WNW,288,0.0,0.0,66,0.00,,---,0.00,VWS V14.00,2013-04-04 08:51:00,
2013-04-04 01:56:00,41.8,31.7,29.79,WNW,288,0.0,1.0,67,0.00,,---,0.00,VWS V14.00,2013-04-04 08:56:00,
2013-04-04 02:01:00,41.6,31.5,29.79,WNW,288,0.0,2.0,67,0.00,,---,0.00,VWS V14.00,2013-04-04 09:01:00,
2013-04-04 02:06:00,41.3,31.2,29.79,WNW,288,0.0,2.0,67,0.00,,---,0.00,VWS V14.00,2013-04-04 09:06:00,
2013-04-04 02:12:00,41.3,31.5,29.79,WNW,288,0.0,0.0,68,0.00,,---,0.00,VWS V14.00,2013-04-04 09:12:00,
2013-04-04 02:17:00,41.3,31.5,29.77,WNW,288,0.0,0.0,68,0.00,,---,0.00,VWS V14.00,2013-04-04 09:17:00,
2013-04-04 02:22:00,41.2,31.5,29.77,WNW,288,0.0,0.0,68,0.00,,---,0.00,VWS V14.00,2013-04-04 09:22:00,
2013-04-04 02:27:00,41.2,31.5,29.77,WNW,288,0.0,0.0,68,0.00,,---,0.00,VWS V14.00,2013-04-04 09:27:00,
2013-04-04 02:32:00,41.2,31.5,29.77,WNW,288,0.0,0.0,68,0.00,,---,0.00,VWS V14.00,2013-04-04 09:32:00,
2013-04-04 02:37:00,41.2,31.8,29.77,WNW,288,0.0,2.0,69,0.00,,---,0.00,VWS V14.00,2013-04-04 09:37:00,
2013-04-04 02:42:00,41.2,31.5,29.77,WNW,288,0.0,0.0,68,0.00,,---,0.00,VWS V14.00,2013-04-04 09:42:00,
2013-04-04 02:47:00,41.2,31.8,29.77,WNW,288,0.0,0.0,69,0.00,,---,0.00,VWS V14.00,2013-04-04 09:47:00,
2013-04-04 02:53:00,41.2,31.8,29.77,WNW,288,0.0,0.0,69,0.00,,---,0.00,VWS V14.00,2013-04-04 09:53:00,
2013-04-04 02:58:00,41.2,31.8,29.77,WNW,288,0.0,1.0,69,0.00,,---,0.00,VWS V14.00,2013-04-04 09:58:00,
2013-04-04 03:03:00,41.3,31.9,29.75,WNW,288,0.0,0.0,69,0.00,,---,0.00,VWS V14.00,2013-04-04 10:03:00,
2013-04-04 03:08:00,41.5,32.1,29.75,WNW,288,0.0,1.0,69,0.00,,---,0.00,VWS V14.00,2013-04-04 10:08:00,
2013-04-04 03:14:00,41.5,32.1,29.75,WNW,288,0.0,0.0,69,0.00,,---,0.00,VWS V14.00,2013-04-04 10:14:00,
2013-04-04 03:19:00,41.3,31.9,29.74,WNW,288,0.0,2.0,69,0.00,,---,0.00,VWS V14.00,2013-04-04 10:19:00,
2013-04-04 03:24:00,41.5,32.1,29.74,WNW,288,0.0,1.0,69,0.00,,---,0.00,VWS V14.00,2013-04-04 10:24:00,
2013-04-04 03:29:00,41.5,32.1,29.74,WNW,288,2.0,2.0,69,0.00,,---,0.00,VWS V14.00,2013-04-04 10:29:00,
2013-04-04 03:34:00,41.5,32.1,29.73,WNW,287,0.0,3.0,69,0.00,,---,0.00,VWS V14.00,2013-04-04 10:34:00,
2013-04-04 03:40:00,41.6,31.8,29.73,WNW,287,0.0,3.0,68,0.00,,---,0.00,VWS V14.00,2013-04-04 10:40:00,
2013-04-04 03:45:00,41.9,32.5,29.73,WNW,287,0.0,2.0,69,0.00,,---,0.00,VWS V14.00,2013-04-04 10:45:00,
2013-04-04 03:50:00,41.9,32.5,29.73,WNW,287,0.0,2.0,69,0.00,,---,0.00,VWS V14.00,2013-04-04 10:50:00,
2013-04-04 03:55:00,41.9,32.5,29.73,WNW,287,0.0,0.0,69,0.00,,---,0.00,VWS V14.00,2013-04-04 10:55:00,
2013-04-04 04:00:00,41.9,32.1,29.72,WNW,287,0.0,2.0,68,0.00,,---,0.00,VWS V14.00,2013-04-04 11:00:00,
2013-04-04 04:05:00,41.9,32.5,29.72,WNW,287,0.0,0.0,69,0.00,,---,0.00,VWS V14.00,2013-04-04 11:05:00,
2013-04-04 04:11:00,41.9,32.5,29.72,WNW,287,0.0,0.0,69,0.00,,---,0.00,VWS V14.00,2013-04-04 11:11:00,
2013-04-04 04:16:00,41.8,32.4,29.71,WNW,287,0.0,0.0,69,0.00,,---,0.00,VWS V14.00,2013-04-04 11:16:00,
2013-04-04 04:21:00,41.8,32.4,29.71,WNW,287,0.0,0.0,69,0.00,,---,0.00,VWS V14.00,2013-04-04 11:21:00,
2013-04-04 04:26:00,41.8,32.8,29.71,WNW,287,0.0,0.0,70,0.00,,---,0.00,VWS V14.00,2013-04-04 11:26:00,
2013-04-04 04:32:00,41.6,32.6,29.71,WNW,287,0.0,0.0,70,0.00,,---,0.00,VWS V14.00,2013-04-04 11:32:00,
2013-04-04 04:37:00,41.5,32.5,29.71,WNW,287,0.0,0.0,70,0.00,,---,0.00,VWS V14.00,2013-04-04 11:37:00,
2013-04-04 04:42:00,41.5,32.5,29.71,WNW,287,0.0,0.0,70,0.00,,---,0.00,VWS V14.00,2013-04-04 11:42:00,
2013-04-04 04:47:00,41.5,32.8,29.69,WNW,287,0.0,0.0,71,0.00,,---,0.00,VWS V14.00,2013-04-04 11:47:00,
2013-04-04 04:52:00,41.3,32.6,29.69,WNW,287,0.0,0.0,71,0.00,,---,0.00,VWS V14.00,2013-04-04 11:52:00,
2013-04-04 04:57:00,41.3,32.6,29.69,WNW,287,0.0,0.0,71,0.00,,---,0.00,VWS V14.00,2013-04-04 11:57:00,
2013-04-04 05:02:00,41.2,32.5,29.70,WNW,287,0.0,0.0,71,0.00,,---,0.00,VWS V14.00,2013-04-04 12:02:00,
2013-04-04 05:08:00,41.2,32.5,29.70,WNW,287,0.0,0.0,71,0.00,,---,0.00,VWS V14.00,2013-04-04 12:08:00,
2013-04-04 05:13:00,41.2,32.5,29.70,WNW,287,0.0,0.0,71,0.00,,---,0.00,VWS V14.00,2013-04-04 12:13:00,
2013-04-04 05:18:00,41.3,32.6,29.70,WNW,287,0.0,0.0,71,0.00,,---,0.00,VWS V14.00,2013-04-04 12:18:00,
2013-04-04 05:23:00,41.2,32.5,29.70,WNW,287,0.0,0.0,71,0.00,,---,0.00,VWS V14.00,2013-04-04 12:23:00,
2013-04-04 05:28:00,41.1,32.4,29.70,WNW,287,0.0,0.0,71,0.00,,---,0.00,VWS V14.00,2013-04-04 12:28:00,
2013-04-04 05:33:00,41.1,32.8,29.69,WNW,287,0.0,0.0,72,0.00,,---,0.00,VWS V14.00,2013-04-04 12:33:00,
2013-04-04 05:39:00,41.1,32.8,29.69,WNW,287,0.0,0.0,72,0.00,,---,0.00,VWS V14.00,2013-04-04 12:39:00,
2013-04-04 05:44:00,40.9,32.6,29.69,WNW,287,0.0,0.0,72,0.00,,---,0.00,VWS V14.00,2013-04-04 12:44:00,
2013-04-04 05:49:00,40.9,32.6,29.68,WNW,287,0.0,0.0,72,0.00,,---,0.00,VWS V14.00,2013-04-04 12:49:00,
2013-04-04 05:55:00,40.9,32.9,29.68,WNW,287,0.0,0.0,73,0.00,,---,0.00,VWS V14.00,2013-04-04 12:55:00,
2013-04-04 06:00:00,41.1,32.8,29.69,WNW,287,0.0,0.0,72,0.00,,---,0.00,VWS V14.00,2013-04-04 13:00:00,
2013-04-04 06:05:00,41.1,32.8,29.69,WNW,287,0.0,0.0,72,0.00,,---,0.00,VWS V14.00,2013-04-04 13:05:00,
2013-04-04 06:10:00,41.2,33.2,29.69,WNW,287,0.0,0.0,73,0.00,,---,0.00,VWS V14.00,2013-04-04 13:10:00,
2013-04-04 06:15:00,41.2,32.9,29.69,WNW,287,1.0,2.0,72,0.00,,---,0.00,VWS V14.00,2013-04-04 13:15:00,
2013-04-04 06:20:00,41.3,33.3,29.69,ESE,112,0.0,6.0,73,0.00,,---,0.00,VWS V14.00,2013-04-04 13:20:00,
2013-04-04 06:26:00,41.6,33.6,29.69,ESE,113,0.0,3.0,73,0.00,,---,0.00,VWS V14.00,2013-04-04 13:26:00,
2013-04-04 06:31:00,41.8,33.8,29.68,ESE,113,0.0,3.0,73,0.00,,---,0.00,VWS V14.00,2013-04-04 13:31:00,
2013-04-04 06:36:00,41.8,34.1,29.68,ESE,113,0.0,0.0,74,0.00,,---,0.00,VWS V14.00,2013-04-04 13:36:00,
2013-04-04 06:41:00,41.8,34.1,29.68,ESE,113,0.0,0.0,74,0.00,,---,0.00,VWS V14.00,2013-04-04 13:41:00,
2013-04-04 06:47:00,41.9,34.2,29.67,ESE,113,0.0,0.0,74,0.00,,---,0.00,VWS V14.00,2013-04-04 13:47:00,
2013-04-04 06:52:00,42.1,34.4,29.67,ESE,113,0.0,0.0,74,0.00,,---,0.00,VWS V14.00,2013-04-04 13:52:00,
2013-04-04 06:57:00,42.2,34.5,29.67,ESE,113,0.0,0.0,74,0.00,,---,0.00,VWS V14.00,2013-04-04 13:57:00,
2013-04-04 07:02:00,42.5,34.8,29.66,ESE,113,0.0,0.0,74,0.00,,---,0.00,VWS V14.00,2013-04-04 14:02:00,
2013-04-04 07:07:00,42.5,34.8,29.66,ESE,113,0.0,0.0,74,0.00,,---,0.00,VWS V14.00,2013-04-04 14:07:00,
2013-04-04 07:13:00,42.6,34.6,29.66,ESE,113,0.0,0.0,73,0.00,,---,0.00,VWS V14.00,2013-04-04 14:13:00,
2013-04-04 07:18:00,43.5,32.9,29.70,ESE,121,3.0,3.0,66,0.00,,---,0.00,VWS V14.00,2013-04-04 14:18:00,
2013-04-04 07:23:00,44.6,34.0,29.70,ESE,123,0.0,1.0,66,0.00,,---,0.00,VWS V14.00,2013-04-04 14:23:00,
2013-04-04 07:29:00,45.1,33.7,29.70,South,172,0.0,3.0,64,0.00,,---,0.00,VWS V14.00,2013-04-04 14:29:00,
2013-04-04 07:34:00,45.5,33.2,29.68,South,176,0.0,3.0,62,0.00,,---,0.00,VWS V14.00,2013-04-04 14:34:00,
2013-04-04 07:39:00,45.8,33.1,29.68,South,176,0.0,3.0,61,0.00,,---,0.00,VWS V14.00,2013-04-04 14:39:00,
2013-04-04 07:44:00,46.0,33.7,29.68,South,176,0.0,0.0,62,0.00,,---,0.00,VWS V14.00,2013-04-04 14:44:00,
2013-04-04 07:49:00,46.0,33.7,29.67,South,176,0.0,0.0,62,0.00,,---,0.00,VWS V14.00,2013-04-04 14:49:00,
2013-04-04 07:54:00,46.1,33.8,29.67,South,176,0.0,2.0,62,0.00,,---,0.00,VWS V14.00,2013-04-04 14:54:00,
2013-04-04 08:00:00,46.5,33.4,29.67,South,176,0.0,2.0,60,0.00,,---,0.00,VWS V14.00,2013-04-04 15:00:00,
2013-04-04 08:05:00,47.4,32.5,29.67,South,178,0.0,5.0,56,0.00,,---,0.00,VWS V14.00,2013-04-04 15:05:00,
2013-04-04 08:10:00,48.3,33.8,29.67,South,179,1.0,5.0,57,0.00,,---,0.00,VWS V14.00,2013-04-04 15:10:00,
2013-04-04 08:15:00,49.1,33.7,29.68,South,189,0.0,7.0,55,0.00,,---,0.00,VWS V14.00,2013-04-04 15:15:00,
2013-04-04 08:21:00,49.6,33.2,29.68,South,189,5.0,8.0,53,0.00,,---,0.00,VWS V14.00,2013-04-04 15:21:00,
2013-04-04 08:26:00,50.2,32.3,29.68,South,188,12.0,12.0,50,0.00,,---,0.00,VWS V14.00,2013-04-04 15:26:00,
2013-04-04 08:32:00,50.5,33.1,29.67,SSW,195,6.0,10.0,51,0.00,,---,0.00,VWS V14.00,2013-04-04 15:32:00,
2013-04-04 08:37:00,50.5,33.5,29.67,SSW,203,8.0,10.0,52,0.00,,---,0.00,VWS V14.00,2013-04-04 15:37:00,
2013-04-04 08:42:00,50.7,33.2,29.67,SSW,196,5.0,5.0,51,0.00,,---,0.00,VWS V14.00,2013-04-04 15:42:00,
2013-04-04 08:47:00,50.8,33.3,29.67,SSW,199,5.0,8.0,51,0.00,,---,0.00,VWS V14.00,2013-04-04 15:47:00,
2013-04-04 08:52:00,51.0,32.5,29.67,SSW,192,7.0,8.0,49,0.00,,---,0.00,VWS V14.00,2013-04-04 15:52:00,
2013-04-04 08:57:00,51.0,33.5,29.67,SSW,192,3.0,8.0,51,0.00,,---,0.00,VWS V14.00,2013-04-04 15:57:00,
2013-04-04 09:02:00,51.0,34.0,29.67,SSW,192,2.0,5.0,52,0.00,,---,0.00,VWS V14.00,2013-04-04 16:02:00,
2013-04-04 09:07:00,51.0,33.5,29.67,SSW,192,0.0,5.0,51,0.00,,---,0.00,VWS V14.00,2013-04-04 16:07:00,
2013-04-04 09:12:00,51.0,34.0,29.67,SSW,195,3.0,6.0,52,0.00,,---,0.00,VWS V14.00,2013-04-04 16:12:00,
2013-04-04 09:18:00,51.1,34.1,29.68,SSW,195,1.0,6.0,52,0.00,,---,0.00,VWS V14.00,2013-04-04 16:18:00,
2013-04-04 09:23:00,51.1,35.0,29.68,SSW,193,5.0,6.0,54,0.00,,---,0.00,VWS V14.00,2013-04-04 16:23:00,
2013-04-04 09:28:00,51.3,34.3,29.68,SSW,198,4.0,12.0,52,0.00,,---,0.00,VWS V14.00,2013-04-04 16:28:00,
2013-04-04 09:33:00,51.3,35.2,29.68,South,188,5.0,7.0,54,0.00,,---,0.00,VWS V14.00,2013-04-04 16:33:00,
2013-04-04 09:38:00,51.4,34.4,29.68,SSW,208,6.0,12.0,52,0.00,,---,0.00,VWS V14.00,2013-04-04 16:38:00,
2013-04-04 09:43:00,51.3,35.2,29.68,SSW,203,5.0,17.0,54,0.00,,---,0.00,VWS V14.00,2013-04-04 16:43:00,
2013-04-04 09:49:00,51.1,36.0,29.68,SSW,199,8.0,17.0,56,0.00,,---,0.00,VWS V14.00,2013-04-04 16:49:00,
2013-04-04 09:54:00,51.0,36.3,29.68,SSW,199,14.0,14.0,57,0.00,,---,0.00,VWS V14.00,2013-04-04 16:54:00,
2013-04-04 09:59:00,51.0,36.8,29.68,South,189,4.0,14.0,58,0.00,,---,0.00,VWS V14.00,2013-04-04 16:59:00,
2013-04-04 10:05:00,50.7,37.8,29.68,SSW,210,6.0,11.0,61,0.00,,---,0.00,VWS V14.00,2013-04-04 17:05:00,
2013-04-04 10:10:00,50.8,36.1,29.68,SSW,192,4.0,14.0,57,0.00,,---,0.00,VWS V14.00,2013-04-04 17:10:00,
2013-04-04 10:15:00,51.0,37.2,29.67,SSW,192,7.0,19.0,59,0.00,,---,0.00,VWS V14.00,2013-04-04 17:15:00,
2013-04-04 10:20:00,51.4,36.2,29.67,SW,224,13.0,21.0,56,0.00,,---,0.00,VWS V14.00,2013-04-04 17:20:00,
2013-04-04 10:25:00,52.0,35.4,29.67,SW,217,6.0,21.0,53,0.00,,---,0.00,VWS V14.00,2013-04-04 17:25:00,
2013-04-04 10:30:00,52.8,36.6,29.66,South,191,14.0,21.0,54,0.00,,---,0.00,VWS V14.00,2013-04-04 17:30:00,
2013-04-04 10:35:00,52.8,35.7,29.66,South,176,5.0,29.0,52,0.00,,---,0.00,VWS V14.00,2013-04-04 17:35:00,
2013-04-04 10:40:00,52.9,34.8,29.66,SSW,195,7.0,29.0,50,0.00,,---,0.00,VWS V14.00,2013-04-04 17:40:00,
2013-04-04 10:45:00,52.8,36.2,29.66,SSW,209,8.0,19.0,53,0.00,,---,0.00,VWS V14.00,2013-04-04 17:45:00,
2013-04-04 10:51:00,52.9,36.2,29.66,SSW,202,14.0,25.0,53,0.00,,---,0.00,VWS V14.00,2013-04-04 17:51:00,
2013-04-04 10:56:00,52.9,35.8,29.66,SW,215,10.0,25.0,52,0.00,,---,0.00,VWS V14.00,2013-04-04 17:56:00,
2013-04-04 11:01:00,52.9,35.8,29.66,SW,216,15.0,33.0,52,0.00,,---,0.00,VWS V14.00,2013-04-04 18:01:00,
2013-04-04 11:06:00,53.5,35.8,29.66,SSW,202,25.0,30.0,51,0.00,,---,0.00,VWS V14.00,2013-04-04 18:06:00,
2013-04-04 11:11:00,54.1,36.4,29.66,South,189,10.0,13.0,51,0.00,,---,0.00,VWS V14.00,2013-04-04 18:11:00,
2013-04-04 11:16:00,54.4,36.7,29.65,South,184,12.0,28.0,51,0.00,,---,0.00,VWS V14.00,2013-04-04 18:16:00,
2013-04-04 11:21:00,54.4,36.2,29.65,South,191,11.0,14.0,50,0.00,,---,0.00,VWS V14.00,2013-04-04 18:21:00,
2013-04-04 11:27:00,54.2,36.5,29.65,South,185,17.0,33.0,51,0.00,,---,0.00,VWS V14.00,2013-04-04 18:27:00,
2013-04-04 11:32:00,55.0,36.7,29.65,SSW,199,11.0,19.0,50,0.00,,---,0.00,VWS V14.00,2013-04-04 18:32:00,
2013-04-04 11:37:00,54.5,36.3,29.65,SSW,202,12.0,25.0,50,0.00,,---,0.00,VWS V14.00,2013-04-04 18:37:00,
2013-04-04 11:42:00,54.8,37.0,29.65,SSW,193,14.0,26.0,51,0.00,,---,0.00,VWS V14.00,2013-04-04 18:42:00,
2013-04-04 11:47:00,55.4,37.1,29.64,South,182,7.0,26.0,50,0.00,,---,0.00,VWS V14.00,2013-04-04 18:47:00,
2013-04-04 11:52:00,55.0,35.2,29.64,South,185,9.0,22.0,47,0.00,,---,0.00,VWS V14.00,2013-04-04 18:52:00,
2013-04-04 11:58:00,55.6,36.8,29.64,SSE,165,12.0,22.0,49,0.00,,---,0.00,VWS V14.00,2013-04-04 18:58:00,
2013-04-04 12:03:00,55.6,36.2,29.64,SSW,195,7.0,19.0,48,0.00,,---,0.00,VWS V14.00,2013-04-04 19:03:00,
2013-04-04 12:08:00,56.2,37.3,29.64,South,184,11.0,19.0,49,0.00,,---,0.00,VWS V14.00,2013-04-04 19:08:00,
2013-04-04 12:13:00,55.3,36.0,29.64,South,184,10.0,25.0,48,0.00,,---,0.00,VWS V14.00,2013-04-04 19:13:00,
2013-04-04 12:18:00,55.0,35.7,29.65,South,181,7.0,25.0,48,0.00,,---,0.00,VWS V14.00,2013-04-04 19:18:00,
2013-04-04 12:23:00,54.4,36.2,29.65,South,179,7.0,24.0,50,0.00,,---,0.00,VWS V14.00,2013-04-04 19:23:00,
2013-04-04 12:28:00,53.9,36.2,29.65,SSW,196,10.0,24.0,51,0.00,,---,0.00,VWS V14.00,2013-04-04 19:28:00,
2013-04-04 12:34:00,54.1,35.9,29.65,SSW,200,8.0,12.0,50,0.00,,---,0.00,VWS V14.00,2013-04-04 19:34:00,
2013-04-04 12:39:00,54.2,35.5,29.65,SSW,199,10.0,20.0,49,0.00,,---,0.00,VWS V14.00,2013-04-04 19:39:00,
2013-04-04 12:44:00,54.8,36.5,29.65,South,186,10.0,19.0,50,0.00,,---,0.00,VWS V14.00,2013-04-04 19:44:00,
2013-04-04 12:49:00,55.7,36.3,29.65,South,184,14.0,26.0,48,0.00,,---,0.00,VWS V14.00,2013-04-04 19:49:00,
2013-04-04 12:55:00,56.5,36.0,29.65,SW,230,19.0,20.0,46,0.00,,---,0.00,VWS V14.00,2013-04-04 19:55:00,
2013-04-04 13:00:00,55.7,35.8,29.64,SW,215,22.0,28.0,47,0.00,,---,0.00,VWS V14.00,2013-04-04 20:00:00,
2013-04-04 13:05:00,55.6,34.6,29.64,WSW,253,12.0,26.0,45,0.00,,---,0.00,VWS V14.00,2013-04-04 20:05:00,
2013-04-04 13:10:00,56.3,35.8,29.64,South,178,10.0,32.0,46,0.00,,---,0.00,VWS V14.00,2013-04-04 20:10:00,
2013-04-04 13:15:00,55.7,35.8,29.65,SSW,198,12.0,29.0,47,0.00,,---,0.00,VWS V14.00,2013-04-04 20:15:00,
2013-04-04 13:20:00,56.0,36.1,29.65,South,189,14.0,29.0,47,0.00,,---,0.00,VWS V14.00,2013-04-04 20:20:00,
2013-04-04 13:25:00,55.9,35.4,29.65,SSW,195,14.0,19.0,46,0.00,,---,0.00,VWS V14.00,2013-04-04 20:25:00,
2013-04-04 13:31:00,55.6,34.6,29.65,SSW,200,16.0,28.0,45,0.00,,---,0.00,VWS V14.00,2013-04-04 20:31:00,
2013-04-04 13:36:00,55.7,35.3,29.65,SSW,202,11.0,26.0,46,0.00,,---,0.00,VWS V14.00,2013-04-04 20:36:00,
2013-04-04 13:42:00,56.5,34.9,29.65,SSW,202,12.0,12.0,44,0.00,,---,0.00,VWS V14.00,2013-04-04 20:42:00,
2013-04-04 13:47:00,56.6,35.5,29.64,SSE,164,7.0,28.0,45,0.00,,---,0.00,VWS V14.00,2013-04-04 20:47:00,
2013-04-04 13:52:00,57.0,35.9,29.64,South,191,7.0,21.0,45,0.00,,---,0.00,VWS V14.00,2013-04-04 20:52:00,
2013-04-04 13:57:00,58.3,37.1,29.64,SSW,198,19.0,29.0,45,0.00,,---,0.00,VWS V14.00,2013-04-04 20:57:00,
2013-04-04 14:02:00,58.0,33.8,29.62,SW,217,8.0,20.0,40,0.00,,---,0.00,VWS V14.00,2013-04-04 21:02:00,
2013-04-04 14:07:00,57.3,35.0,29.62,South,172,7.0,20.0,43,0.00,,---,0.00,VWS V14.00,2013-04-04 21:07:00,
2013-04-04 14:12:00,57.6,35.9,29.62,SSW,206,17.0,17.0,44,0.00,,---,0.00,VWS V14.00,2013-04-04 21:12:00,
2013-04-04 14:17:00,57.6,34.7,29.61,SSW,203,17.0,21.0,42,0.00,,---,0.00,VWS V14.00,2013-04-04 21:17:00,
2013-04-04 14:23:00,58.1,35.2,29.61,SSW,195,17.0,24.0,42,0.00,,---,0.00,VWS V14.00,2013-04-04 21:23:00,
2013-04-04 14:28:00,58.0,35.1,29.61,SSW,203,9.0,25.0,42,0.00,,---,0.00,VWS V14.00,2013-04-04 21:28:00,
2013-04-04 14:33:00,57.5,34.6,29.61,SSW,196,26.0,26.0,42,0.00,,---,0.00,VWS V14.00,2013-04-04 21:33:00,
2013-04-04 14:38:00,57.8,34.3,29.61,SSW,202,17.0,32.0,41,0.00,,---,0.00,VWS V14.00,2013-04-04 21:38:00,
2013-04-04 14:43:00,58.7,35.7,29.61,SSW,196,12.0,26.0,42,0.00,,---,0.00,VWS V14.00,2013-04-04 21:43:00,
2013-04-04 14:49:00,58.6,34.4,29.61,SSW,210,13.0,36.0,40,0.00,,---,0.00,VWS V14.00,2013-04-04 21:49:00,
2013-04-04 14:54:00,55.9,36.5,29.61,SSE,162,16.0,38.0,48,0.00,,---,0.00,VWS V14.00,2013-04-04 21:54:00,
2013-04-04 14:59:00,51.7,37.4,29.61,SSW,205,17.0,41.0,58,0.00,,---,0.00,VWS V14.00,2013-04-04 21:59:00,
2013-04-04 15:04:00,52.5,38.2,29.67,South,191,13.0,16.0,58,0.00,,---,0.00,VWS V14.00,2013-04-04 22:04:00,
2013-04-04 15:09:00,52.5,39.9,29.67,SW,232,21.0,26.0,62,0.00,,---,0.00,VWS V14.00,2013-04-04 22:09:00,
2013-04-04 15:15:00,52.3,38.8,29.67,SSW,198,19.0,31.0,60,0.00,,---,0.00,VWS V14.00,2013-04-04 22:15:00,
2013-04-04 15:20:00,52.9,38.5,29.67,South,175,16.0,31.0,58,0.00,,---,0.00,VWS V14.00,2013-04-04 22:20:00,
2013-04-04 15:25:00,52.0,38.1,29.67,SW,217,11.0,31.0,59,0.00,,---,0.00,VWS V14.00,2013-04-04 22:25:00,
2013-04-04 15:30:00,51.9,38.0,29.68,South,175,19.0,31.0,59,0.00,,---,0.00,VWS V14.00,2013-04-04 22:30:00,
2013-04-04 15:35:00,51.1,37.3,29.68,SSW,196,16.0,25.0,59,0.00,,---,0.00,VWS V14.00,2013-04-04 22:35:00,
2013-04-04 15:40:00,51.0,37.6,29.68,SSW,213,14.0,30.0,60,0.00,,---,0.00,VWS V14.00,2013-04-04 22:40:00,
2013-04-04 15:45:00,51.0,36.8,29.69,South,176,11.0,28.0,58,0.00,,---,0.00,VWS V14.00,2013-04-04 22:45:00,
2013-04-04 15:51:00,50.2,36.9,29.69,SSW,208,14.0,28.0,60,0.00,,---,0.00,VWS V14.00,2013-04-04 22:51:00,
2013-04-04 15:56:00,50.2,37.7,29.69,SW,224,12.0,24.0,62,0.00,,---,0.00,VWS V14.00,2013-04-04 22:56:00,
2013-04-04 16:02:00,50.1,38.4,29.70,SSW,212,8.0,13.0,64,0.00,,---,0.00,VWS V14.00,2013-04-04 23:02:00,
2013-04-04 16:07:00,50.5,38.4,29.70,South,186,9.0,19.0,63,0.00,,---,0.00,VWS V14.00,2013-04-04 23:07:00,
2013-04-04 16:12:00,49.8,38.1,29.70,SSW,198,19.0,19.0,64,0.00,,---,0.00,VWS V14.00,2013-04-04 23:12:00,
2013-04-04 16:17:00,50.5,38.4,29.71,South,189,18.0,21.0,63,0.00,,---,0.00,VWS V14.00,2013-04-04 23:17:00,
2013-04-04 16:23:00,51.3,37.9,29.71,SW,216,11.0,16.0,60,0.00,,---,0.00,VWS V14.00,2013-04-04 23:23:00,
2013-04-04 16:28:00,50.7,37.3,29.71,South,181,12.0,18.0,60,0.00,,---,0.00,VWS V14.00,2013-04-04 23:28:00,
2013-04-04 16:33:00,50.7,37.8,29.71,South,182,10.0,13.0,61,0.00,,---,0.00,VWS V14.00,2013-04-04 23:33:00,
2013-04-04 16:38:00,50.8,37.8,29.71,SW,219,5.0,13.0,61,0.00,,---,0.00,VWS V14.00,2013-04-04 23:38:00,
2013-04-04 16:43:00,50.1,37.6,29.71,South,188,8.0,17.0,62,0.00,,---,0.00,VWS V14.00,2013-04-04 23:43:00,
2013-04-04 16:49:00,50.5,37.6,29.71,SSW,208,7.0,17.0,61,0.00,,---,0.00,VWS V14.00,2013-04-04 23:49:00,
2013-04-04 16:54:00,50.8,37.8,29.71,SSW,206,13.0,24.0,61,0.00,,---,0.00,VWS V14.00,2013-04-04 23:54:00,
2013-04-04 16:59:00,51.1,38.1,29.71,SSW,196,12.0,24.0,61,0.00,,---,0.00,VWS V14.00,2013-04-04 23:59:00,
2013-04-04 17:04:00,51.6,38.6,29.70,SSE,168,7.0,13.0,61,0.00,,---,0.00,VWS V14.00,2013-04-05 00:04:00,
2013-04-04 17:09:00,51.9,37.6,29.70,SSW,192,12.0,14.0,58,0.00,,---,0.00,VWS V14.00,2013-04-05 00:09:00,
2013-04-04 17:14:00,51.1,38.5,29.70,South,191,7.0,17.0,62,0.00,,---,0.00,VWS V14.00,2013-04-05 00:14:00,
2013-04-04 17:19:00,51.0,37.6,29.71,SW,220,7.0,24.0,60,0.00,,---,0.00,VWS V14.00,2013-04-05 00:19:00,
2013-04-04 17:25:00,51.0,37.2,29.71,South,186,11.0,17.0,59,0.00,,---,0.00,VWS V14.00,2013-04-05 00:25:00,
2013-04-04 17:30:00,51.1,37.3,29.71,South,186,8.0,21.0,59,0.00,,---,0.00,VWS V14.00,2013-04-05 00:30:00,
2013-04-04 17:35:00,51.3,37.5,29.70,South,182,7.0,13.0,59,0.00,,---,0.00,VWS V14.00,2013-04-05 00:35:00,
2013-04-04 17:40:00,51.6,37.3,29.70,SSW,208,12.0,18.0,58,0.00,,---,0.00,VWS V14.00,2013-04-05 00:40:00,
2013-04-04 17:45:00,50.8,36.6,29.70,SSW,198,11.0,17.0,58,0.00,,---,0.00,VWS V14.00,2013-04-05 00:45:00,
2013-04-04 17:51:00,51.0,37.2,29.70,SW,217,7.0,17.0,59,0.00,,---,0.00,VWS V14.00,2013-04-05 00:51:00,
2013-04-04 17:56:00,50.7,38.2,29.70,SW,229,9.0,18.0,62,0.00,,---,0.00,VWS V14.00,2013-04-05 00:56:00,
2013-04-04 18:01:00,50.1,37.6,29.71,SSW,198,8.0,18.0,62,0.00,,---,0.00,VWS V14.00,2013-04-05 01:01:00,
2013-04-04 18:06:00,49.8,36.9,29.71,SSW,193,13.0,19.0,61,0.00,,---,0.00,VWS V14.00,2013-04-05 01:06:00,
2013-04-04 18:12:00,49.6,36.7,29.71,South,179,16.0,21.0,61,0.00,,---,0.00,VWS V14.00,2013-04-05 01:12:00,
2013-04-04 18:17:00,49.6,37.1,29.70,South,185,5.0,21.0,62,0.00,,---,0.00,VWS V14.00,2013-04-05 01:17:00,
2013-04-04 18:22:00,49.5,36.2,29.70,South,188,7.0,10.0,60,0.00,,---,0.00,VWS V14.00,2013-04-05 01:22:00,
2013-04-04 18:27:00,49.4,36.5,29.70,SSW,210,7.0,14.0,61,0.00,,---,0.00,VWS V14.00,2013-04-05 01:27:00,
2013-04-04 18:32:00,48.9,35.2,29.70,SSW,199,11.0,17.0,59,0.00,,---,0.00,VWS V14.00,2013-04-05 01:32:00,
2013-04-04 18:37:00,48.6,36.2,29.70,SSW,206,11.0,17.0,62,0.00,,---,0.00,VWS V14.00,2013-04-05 01:37:00,
2013-04-04 18:42:00,48.5,36.1,29.70,South,179,8.0,12.0,62,0.00,,---,0.00,VWS V14.00,2013-04-05 01:42:00,
2013-04-04 18:47:00,48.6,35.8,29.71,SSW,198,7.0,17.0,61,0.00,,---,0.00,VWS V14.00,2013-04-05 01:47:00,
2013-04-04 18:52:00,48.6,36.2,29.71,SSW,196,12.0,14.0,62,0.00,,---,0.00,VWS V14.00,2013-04-05 01:52:00,
2013-04-04 18:58:00,48.3,36.3,29.71,South,184,5.0,14.0,63,0.00,,---,0.00,VWS V14.00,2013-04-05 01:58:00,
2013-04-04 19:03:00,47.9,36.3,29.72,South,182,7.0,8.0,64,0.00,,---,0.00,VWS V14.00,2013-04-05 02:03:00,
2013-04-04 19:08:00,47.6,36.0,29.72,South,188,5.0,10.0,64,0.00,,---,0.00,VWS V14.00,2013-04-05 02:08:00,
2013-04-04 19:13:00,47.4,35.8,29.72,South,186,5.0,10.0,64,0.00,,---,0.00,VWS V14.00,2013-04-05 02:13:00,
2013-04-04 19:19:00,47.3,35.4,29.71,South,184,6.0,10.0,63,0.00,,---,0.00,VWS V14.00,2013-04-05 02:19:00,
2013-04-04 19:24:00,47.1,34.8,29.71,SSW,206,5.0,11.0,62,0.00,,---,0.00,VWS V14.00,2013-04-05 02:24:00,
2013-04-04 19:29:00,47.0,35.1,29.71,SSW,193,6.0,12.0,63,0.00,,---,0.00,VWS V14.00,2013-04-05 02:29:00,
2013-04-04 19:34:00,46.7,35.2,29.71,SSW,192,6.0,8.0,64,0.00,,---,0.00,VWS V14.00,2013-04-05 02:34:00,
2013-04-04 19:39:00,46.4,34.9,29.71,SSW,203,11.0,11.0,64,0.00,,---,0.00,VWS V14.00,2013-04-05 02:39:00,
2013-04-04 19:44:00,46.2,35.5,29.71,SSW,203,14.0,22.0,66,0.00,,---,0.00,VWS V14.00,2013-04-05 02:44:00,
2013-04-04 19:50:00,46.0,34.5,29.73,SSW,206,9.0,22.0,64,0.00,,---,0.00,VWS V14.00,2013-04-05 02:50:00,
2013-04-04 19:55:00,45.8,35.1,29.73,South,188,7.0,14.0,66,0.00,,---,0.00,VWS V14.00,2013-04-05 02:55:00,
2013-04-04 20:00:00,45.5,35.2,29.73,SSW,192,8.0,17.0,67,0.00,,---,0.00,VWS V14.00,2013-04-05 03:00:00,
2013-04-04 20:05:00,45.4,34.7,29.73,SSW,213,7.0,12.0,66,0.00,,---,0.00,VWS V14.00,2013-04-05 03:05:00,
2013-04-04 20:11:00,45.2,34.9,29.73,SSW,195,11.0,13.0,67,0.00,,---,0.00,VWS V14.00,2013-04-05 03:11:00,
2013-04-04 20:16:00,45.1,35.5,29.71,SW,216,9.0,17.0,69,0.00,,---,0.00,VWS V14.00,2013-04-05 03:16:00,
2013-04-04 20:21:00,44.9,35.7,29.71,SSW,192,9.0,10.0,70,0.00,,---,0.00,VWS V14.00,2013-04-05 03:21:00,
2013-04-04 20:27:00,44.9,35.4,29.71,South,176,6.0,17.0,69,0.00,,---,0.00,VWS V14.00,2013-04-05 03:27:00,
2013-04-04 20:32:00,44.9,35.0,29.72,SSW,193,8.0,12.0,68,0.00,,---,0.00,VWS V14.00,2013-04-05 03:32:00,
2013-04-04 20:38:00,45.2,34.5,29.72,SSW,213,11.0,17.0,66,0.00,,---,0.00,VWS V14.00,2013-04-05 03:38:00,
2013-04-04 20:43:00,45.2,34.5,29.72,SSW,196,8.0,12.0,66,0.00,,---,0.00,VWS V14.00,2013-04-05 03:43:00,
2013-04-04 20:48:00,45.2,33.8,29.72,SSW,210,10.0,18.0,64,0.00,,---,0.00,VWS V14.00,2013-04-05 03:48:00,
2013-04-04 20:53:00,45.1,34.0,29.72,SSW,213,8.0,14.0,65,0.00,,---,0.00,VWS V14.00,2013-04-05 03:53:00,
2013-04-04 20:58:00,45.1,34.0,29.72,SSW,206,7.0,14.0,65,0.00,,---,0.00,VWS V14.00,2013-04-05 03:58:00,
2013-04-04 21:00:00,44.9,33.9,29.73,SW,222,2.0,14.0,65,0.00,,---,0.00,VWS V14.00,2013-04-05 04:00:00,
2013-04-04 21:01:00,44.9,33.9,29.73,SSW,203,12.0,14.0,65,0.00,,---,0.00,VWS V14.00,2013-04-05 04:01:00,
2013-04-04 21:03:00,44.8,33.8,29.73,SSW,206,8.0,13.0,65,0.00,,---,0.00,VWS V14.00,2013-04-05 04:03:00,
2013-04-04 21:08:00,44.3,34.8,29.73,South,188,8.0,14.0,69,0.00,,---,0.00,VWS V14.00,2013-04-05 04:08:00,
2013-04-04 21:13:00,43.9,35.1,29.73,SSW,196,7.0,11.0,71,0.00,,---,0.00,VWS V14.00,2013-04-05 04:13:00,
2013-04-04 21:19:00,43.5,35.1,29.74,SSW,192,10.0,14.0,72,0.00,,---,0.00,VWS V14.00,2013-04-05 04:19:00,
2013-04-04 21:24:00,43.3,34.9,29.74,SSW,198,11.0,14.0,72,0.00,,---,0.00,VWS V14.00,2013-04-05 04:24:00,
2013-04-04 21:29:00,43.3,34.5,29.74,SSW,200,7.0,18.0,71,0.00,,---,0.00,VWS V14.00,2013-04-05 04:29:00,
2013-04-04 21:34:00,43.1,34.3,29.74,South,189,7.0,12.0,71,0.00,,---,0.00,VWS V14.00,2013-04-05 04:34:00,
2013-04-04 21:39:00,43.2,34.8,29.74,SW,217,9.0,19.0,72,0.00,,---,0.00,VWS V14.00,2013-04-05 04:39:00,
2013-04-04 21:44:00,43.2,34.1,29.74,SSW,195,14.0,17.0,70,0.00,,---,0.00,VWS V14.00,2013-04-05 04:44:00,
2013-04-04 21:49:00,43.5,34.0,29.74,SW,215,12.0,17.0,69,0.00,,---,0.00,VWS V14.00,2013-04-05 04:49:00,
2013-04-04 21:55:00,43.5,34.0,29.74,SSW,193,10.0,16.0,69,0.00,,---,0.00,VWS V14.00,2013-04-05 04:55:00,
2013-04-04 22:00:00,43.3,34.2,29.74,South,185,14.0,16.0,70,0.00,,---,0.00,VWS V14.00,2013-04-05 05:00:00,
2013-04-04 22:05:00,43.2,33.7,29.74,South,186,7.0,17.0,69,0.00,,---,0.00,VWS V14.00,2013-04-05 05:05:00,
2013-04-04 22:10:00,43.1,34.3,29.74,SSW,198,5.0,17.0,71,0.00,,---,0.00,VWS V14.00,2013-04-05 05:10:00,
2013-04-04 22:15:00,43.1,34.0,29.75,WNW,296,3.0,13.0,70,0.00,,---,0.00,VWS V14.00,2013-04-05 05:15:00,
2013-04-04 22:21:00,43.5,32.9,29.75,South,186,7.0,14.0,66,0.00,,---,0.00,VWS V14.00,2013-04-05 05:21:00,
2013-04-04 22:26:00,43.6,32.6,29.75,SSW,198,10.0,13.0,65,0.00,,---,0.00,VWS V14.00,2013-04-05 05:26:00,
2013-04-04 22:31:00,43.8,33.2,29.77,South,191,0.0,13.0,66,0.00,,---,0.00,VWS V14.00,2013-04-05 05:31:00,
2013-04-04 22:36:00,43.8,32.8,29.77,South,176,2.0,8.0,65,0.00,,---,0.00,VWS V14.00,2013-04-05 05:36:00,
2013-04-04 22:42:00,43.6,33.0,29.77,South,178,2.0,6.0,66,0.00,,---,0.00,VWS V14.00,2013-04-05 05:42:00,
2013-04-04 22:47:00,43.6,32.6,29.77,SSW,199,10.0,10.0,65,0.00,,---,0.00,VWS V14.00,2013-04-05 05:47:00,
2013-04-04 22:52:00,43.5,32.9,29.77,South,186,7.0,10.0,66,0.00,,---,0.00,VWS V14.00,2013-04-05 05:52:00,
2013-04-04 22:57:00,43.3,32.3,29.77,South,188,7.0,12.0,65,0.00,,---,0.00,VWS V14.00,2013-04-05 05:57:00,
2013-04-04 23:02:00,43.2,33.4,29.77,South,191,5.0,7.0,68,0.00,,---,0.00,VWS V14.00,2013-04-05 06:02:00,
2013-04-04 23:07:00,42.8,33.0,29.77,SSW,198,5.0,11.0,68,0.00,,---,0.00,VWS V14.00,2013-04-05 06:07:00,
2013-04-04 23:12:00,42.5,33.4,29.77,South,184,7.0,10.0,70,0.00,,---,0.00,VWS V14.00,2013-04-05 06:12:00,
2013-04-04 23:17:00,42.5,33.1,29.76,SSW,206,5.0,17.0,69,0.00,,---,0.00,VWS V14.00,2013-04-05 06:17:00,
2013-04-04 23:22:00,42.5,32.7,29.76,SW,224,11.0,21.0,68,0.00,,---,0.00,VWS V14.00,2013-04-05 06:22:00,
2013-04-04 23:27:00,42.5,33.1,29.76,SSW,196,12.0,24.0,69,0.00,,---,0.00,VWS V14.00,2013-04-05 06:27:00,
2013-04-04 23:32:00,42.1,33.7,29.76,SSW,196,14.0,14.0,72,0.00,,---,0.00,VWS V14.00,2013-04-05 06:32:00,
2013-04-04 23:38:00,41.8,32.8,29.76,SSW,203,14.0,17.0,70,0.00,,---,0.00,VWS V14.00,2013-04-05 06:38:00,
2013-04-04 23:43:00,41.8,32.8,29.76,South,191,10.0,19.0,70,0.00,,---,0.00,VWS V14.00,2013-04-05 06:43:00,
2013-04-04 23:48:00,41.1,33.5,29.76,South,184,8.0,19.0,74,0.00,,---,0.00,VWS V14.00,2013-04-05 06:48:00,
2013-04-04 23:53:00,40.6,33.3,29.76,SSW,192,6.0,19.0,75,0.00,,---,0.00,VWS V14.00,2013-04-05 06:53:00,
2013-04-04 23:58:00,40.3,32.7,29.76,SSW,192,11.0,19.0,74,0.00,,---,0.00,VWS V14.00,2013-04-05 06:58:00,